Aérodrome :
LOGIN :

S'inscrire | Disclaimer

   EN    FR    IT 

 










Légende :    VFR   VFR Marginal   IFR   IFR Intensif   IFR Très Intensif
Visi : 
Plafond : 
>= 8 km
>= 3000ft
5 à 8 km
1000 à 3000 ft
1500m à 5 km
500 à 1000 ft
800 à 1500m
200 à 500 ft
< 800m
< 200 ft
Symboles :   Orages  Brouillard  Fortes neiges  Fortes précipitations  Vent > 20 kt
SIGMETs :   Divers  Orages  Givrage  Turbulence  Onde Orograph.  Cendres Volcan.







- Altitude de l'aérodrome : 1276 ft
- Code IATA : STR


EDDS - Stuttgart

DERNIER METAR :
  • 242150Z 32006KT 9999 BKN046 17/09 Q1020

METARs EXPIRÉS :
  • 242120Z 32007KT 9999 BKN043 17/09 Q1020
  • 242050Z 32005KT 9999 FEW043 BKN050 17/09 Q1020
  • 242020Z 33005KT 9999 FEW047 BKN060 17/09 Q1020
  • 241950Z 33004KT 9999 FEW048 BKN060 BKN280 17/08 Q1020 NOSIG
  • 241920Z 35005KT 250V040 9999 FEW046 SCT066 BKN280 18/09 Q1020 NOSIG

TAF TAF EDDS
Valide du 24 à 18h jusqu'au 25 à 18h UTC


241700Z 2418/2518 36005KT 9999 SCT045
TEMPO 2422/2507 VRB03KT
Pas de NOTAMs connus pour ce terrain.



MET'MAP, la Météo Aéronautique d'un coup d'oeil ! - Copyright ORBIFLY Décembre 2007 - Disclaimer

ORBIFLY MET'MAP TEAM :

Programmation & Développement : Alexandra Zaïnal
Conception & Développement : Baudouin d'Aumeries
Co-Programmation & Développement : Marc-Olivier Méhu
Soutien technique & logistique : Manuel Goepfert

Contact : metmap@orbifly.com




SOURCES & CREDITS :

   NOAA